Time,TemperatureF,DewpointF,PressureIn,WindDirection,WindDirectionDegrees,WindSpeedMPH,WindSpeedGustMPH,Humidity,HourlyPrecipIn,Conditions,Clouds,dailyrainin,SoftwareType,DateUTC
2014-09-19 00:02:00,47.6,46.2,30.18,SE,128,2.0,2.0,95,0.00,,---,0.00,VWS V15.00,2014-09-19 05:02:00,
2014-09-19 00:07:00,47.6,46.2,30.18,SE,128,1.0,3.0,95,0.00,,---,0.00,VWS V15.00,2014-09-19 05:07:00,
2014-09-19 00:12:00,47.6,46.2,30.18,SE,128,2.0,2.0,95,0.00,,---,0.00,VWS V15.00,2014-09-19 05:12:00,
2014-09-19 00:17:00,47.7,46.3,30.18,SE,128,1.0,2.0,95,0.00,,---,0.00,VWS V15.00,2014-09-19 05:17:00,
2014-09-19 00:22:00,47.7,46.3,30.18,SE,128,1.0,3.0,95,0.00,,---,0.00,VWS V15.00,2014-09-19 05:22:00,
2014-09-19 00:27:00,47.7,46.3,30.18,SE,128,0.0,2.0,95,0.00,,---,0.00,VWS V15.00,2014-09-19 05:27:00,
2014-09-19 00:32:00,47.7,46.3,30.18,SE,128,0.0,0.0,95,0.00,,---,0.00,VWS V15.00,2014-09-19 05:32:00,
2014-09-19 00:37:00,47.7,46.3,30.18,SE,128,1.0,1.0,95,0.00,,---,0.00,VWS V15.00,2014-09-19 05:37:00,
2014-09-19 00:42:00,47.5,46.1,30.18,SE,128,0.0,0.0,95,0.00,,---,0.00,VWS V15.00,2014-09-19 05:42:00,
2014-09-19 00:47:00,47.4,46.0,30.18,SE,128,0.0,2.0,95,0.00,,---,0.00,VWS V15.00,2014-09-19 05:47:00,
2014-09-19 00:52:00,47.5,46.1,30.18,SE,128,2.0,3.0,95,0.00,,---,0.00,VWS V15.00,2014-09-19 05:52:00,
2014-09-19 00:57:00,47.5,46.1,30.18,SE,128,1.0,3.0,95,0.00,,---,0.00,VWS V15.00,2014-09-19 05:57:00,
2014-09-19 01:02:00,47.5,46.1,30.17,SE,128,2.0,3.0,95,0.00,,---,0.00,VWS V15.00,2014-09-19 06:02:00,
2014-09-19 01:03:00,47.5,46.1,30.17,SE,128,3.0,3.0,95,0.00,,---,0.00,VWS V15.00,2014-09-19 06:03:00,
2014-09-19 01:08:00,47.6,46.5,30.17,SE,128,3.0,4.0,96,0.00,,---,0.00,VWS V15.00,2014-09-19 06:08:00,
2014-09-19 01:13:00,47.7,46.6,30.17,SE,130,3.0,3.0,96,0.00,,---,0.00,VWS V15.00,2014-09-19 06:13:00,
2014-09-19 01:18:00,47.7,46.6,30.17,SE,130,1.0,3.0,96,0.00,,---,0.00,VWS V15.00,2014-09-19 06:18:00,
2014-09-19 01:23:00,47.6,46.2,30.17,SE,137,3.0,4.0,95,0.00,,---,0.00,VWS V15.00,2014-09-19 06:23:00,
2014-09-19 01:28:00,47.6,46.5,30.17,SSE,151,4.0,5.0,96,0.00,,---,0.00,VWS V15.00,2014-09-19 06:28:00,
2014-09-19 01:33:00,47.8,46.7,30.17,SSE,155,1.0,5.0,96,0.00,,---,0.00,VWS V15.00,2014-09-19 06:33:00,
2014-09-19 01:38:00,47.9,46.8,30.17,SSE,150,2.0,6.0,96,0.00,,---,0.00,VWS V15.00,2014-09-19 06:38:00,
2014-09-19 01:43:00,48.1,47.0,30.17,SSE,150,4.0,4.0,96,0.00,,---,0.00,VWS V15.00,2014-09-19 06:43:00,
2014-09-19 01:48:00,48.3,47.2,30.16,SSE,149,1.0,5.0,96,0.00,,---,0.00,VWS V15.00,2014-09-19 06:48:00,
2014-09-19 01:53:00,48.5,47.4,30.16,SSE,148,1.0,5.0,96,0.00,,---,0.00,VWS V15.00,2014-09-19 06:53:00,
2014-09-19 01:58:00,48.8,48.0,30.16,SSE,155,6.0,7.0,97,0.00,,---,0.00,VWS V15.00,2014-09-19 06:58:00,
2014-09-19 02:03:00,49.1,48.3,30.16,SSE,151,3.0,7.0,97,0.00,,---,0.00,VWS V15.00,2014-09-19 07:03:00,
2014-09-19 02:08:00,49.4,48.6,30.16,SSE,155,4.0,7.0,97,0.00,,---,0.00,VWS V15.00,2014-09-19 07:08:00,
2014-09-19 02:13:00,49.7,48.9,30.15,SSE,155,0.0,4.0,97,0.00,,---,0.00,VWS V15.00,2014-09-19 07:13:00,
2014-09-19 02:18:00,50.1,49.3,30.16,SSE,158,1.0,5.0,97,0.00,,---,0.00,VWS V15.00,2014-09-19 07:18:00,
2014-09-19 02:23:00,50.4,49.6,30.16,SSE,157,2.0,4.0,97,0.00,,---,0.00,VWS V15.00,2014-09-19 07:23:00,
2014-09-19 02:28:00,50.8,50.0,30.16,SSE,158,1.0,4.0,97,0.00,,---,0.00,VWS V15.00,2014-09-19 07:28:00,
2014-09-19 02:33:00,51.0,50.2,30.16,SSE,158,1.0,2.0,97,0.00,,---,0.00,VWS V15.00,2014-09-19 07:33:00,
2014-09-19 02:38:00,51.1,50.3,30.16,SSE,158,1.0,3.0,97,0.00,,---,0.00,VWS V15.00,2014-09-19 07:38:00,
2014-09-19 02:43:00,51.2,50.4,30.15,SSE,158,0.0,3.0,97,0.00,,---,0.00,VWS V15.00,2014-09-19 07:43:00,
2014-09-19 02:48:00,51.3,50.5,30.15,SSE,158,2.0,3.0,97,0.00,,---,0.00,VWS V15.00,2014-09-19 07:48:00,
2014-09-19 02:53:00,51.3,50.5,30.15,SSE,158,0.0,2.0,97,0.00,,---,0.00,VWS V15.00,2014-09-19 07:53:00,
2014-09-19 02:58:00,51.3,50.5,30.15,SSE,158,1.0,2.0,97,0.00,,---,0.00,VWS V15.00,2014-09-19 07:58:00,
2014-09-19 03:03:00,51.3,50.5,30.15,SSE,158,3.0,4.0,97,0.00,,---,0.00,VWS V15.00,2014-09-19 08:03:00,
2014-09-19 03:08:00,51.2,50.4,30.15,SSE,158,1.0,3.0,97,0.00,,---,0.00,VWS V15.00,2014-09-19 08:08:00,
2014-09-19 03:13:00,51.2,50.4,30.14,SSE,158,1.0,4.0,97,0.00,,---,0.00,VWS V15.00,2014-09-19 08:13:00,
2014-09-19 03:18:00,51.2,50.4,30.14,SSE,158,2.0,4.0,97,0.00,,---,0.00,VWS V15.00,2014-09-19 08:18:00,
2014-09-19 03:23:00,51.4,50.6,30.14,SSE,163,0.0,6.0,97,0.00,,---,0.00,VWS V15.00,2014-09-19 08:23:00,
2014-09-19 03:28:00,51.9,51.1,30.15,SSE,161,3.0,4.0,97,0.00,,---,0.00,VWS V15.00,2014-09-19 08:28:00,
2014-09-19 03:33:00,52.4,51.6,30.15,SSE,167,2.0,6.0,97,0.00,,---,0.00,VWS V15.00,2014-09-19 08:33:00,
2014-09-19 03:38:00,52.8,52.0,30.15,South,169,3.0,7.0,97,0.00,,---,0.00,VWS V15.00,2014-09-19 08:38:00,
2014-09-19 03:43:00,53.2,52.4,30.15,South,177,3.0,7.0,97,0.00,,---,0.00,VWS V15.00,2014-09-19 08:43:00,
2014-09-19 03:48:00,53.4,52.6,30.15,South,171,3.0,6.0,97,0.00,,---,0.00,VWS V15.00,2014-09-19 08:48:00,
2014-09-19 03:53:00,53.7,52.9,30.16,SSE,154,1.0,6.0,97,0.00,,---,0.00,VWS V15.00,2014-09-19 08:53:00,
2014-09-19 03:58:00,53.9,53.1,30.16,SSE,155,3.0,5.0,97,0.00,,---,0.00,VWS V15.00,2014-09-19 08:58:00,
2014-09-19 04:03:00,54.1,53.3,30.16,SSE,165,0.0,5.0,97,0.00,,---,0.00,VWS V15.00,2014-09-19 09:03:00,
2014-09-19 04:08:00,54.3,53.5,30.16,SSE,167,5.0,6.0,97,0.00,,---,0.00,VWS V15.00,2014-09-19 09:08:00,
2014-09-19 04:13:00,54.4,53.6,30.16,South,175,3.0,6.0,97,0.00,,---,0.00,VWS V15.00,2014-09-19 09:13:00,
2014-09-19 04:18:00,54.6,53.8,30.16,South,171,2.0,6.0,97,0.00,,---,0.00,VWS V15.00,2014-09-19 09:18:00,
2014-09-19 04:23:00,54.6,53.8,30.15,South,178,4.0,6.0,97,0.00,,---,0.00,VWS V15.00,2014-09-19 09:23:00,
2014-09-19 04:28:00,54.7,53.9,30.15,South,179,3.0,4.0,97,0.00,,---,0.00,VWS V15.00,2014-09-19 09:28:00,
2014-09-19 04:33:00,54.6,53.8,30.16,South,179,4.0,5.0,97,0.00,,---,0.00,VWS V15.00,2014-09-19 09:33:00,
2014-09-19 04:38:00,54.6,53.8,30.16,South,179,2.0,3.0,97,0.00,,---,0.00,VWS V15.00,2014-09-19 09:38:00,
2014-09-19 04:43:00,54.6,53.8,30.16,South,181,3.0,5.0,97,0.00,,---,0.00,VWS V15.00,2014-09-19 09:43:00,
2014-09-19 04:48:00,54.6,53.8,30.15,South,186,4.0,6.0,97,0.00,,---,0.00,VWS V15.00,2014-09-19 09:48:00,
2014-09-19 04:53:00,54.7,53.9,30.15,South,185,2.0,6.0,97,0.00,,---,0.00,VWS V15.00,2014-09-19 09:53:00,
2014-09-19 04:58:00,54.7,53.9,30.15,South,185,2.0,5.0,97,0.00,,---,0.00,VWS V15.00,2014-09-19 09:58:00,
2014-09-19 05:03:00,54.7,53.9,30.15,South,191,3.0,5.0,97,0.00,,---,0.00,VWS V15.00,2014-09-19 10:03:00,
2014-09-19 05:08:00,54.9,54.1,30.15,South,184,5.0,7.0,97,0.00,,---,0.00,VWS V15.00,2014-09-19 10:08:00,
2014-09-19 05:13:00,54.9,54.1,30.14,South,184,4.0,5.0,97,0.00,,---,0.00,VWS V15.00,2014-09-19 10:13:00,
2014-09-19 05:18:00,54.9,54.1,30.14,South,181,5.0,5.0,97,0.00,,---,0.00,VWS V15.00,2014-09-19 10:18:00,
2014-09-19 05:23:00,55.0,54.2,30.14,South,180,4.0,6.0,97,0.00,,---,0.00,VWS V15.00,2014-09-19 10:23:00,
2014-09-19 05:28:00,55.1,54.3,30.14,South,173,5.0,7.0,97,0.00,,---,0.00,VWS V15.00,2014-09-19 10:28:00,
2014-09-19 05:33:00,55.3,54.5,30.14,South,176,7.0,9.0,97,0.00,,---,0.00,VWS V15.00,2014-09-19 10:33:00,
2014-09-19 05:38:00,55.4,54.6,30.14,South,184,5.0,6.0,97,0.00,,---,0.00,VWS V15.00,2014-09-19 10:38:00,
2014-09-19 05:43:00,55.5,54.7,30.14,South,184,5.0,7.0,97,0.00,,---,0.00,VWS V15.00,2014-09-19 10:43:00,
2014-09-19 05:48:00,55.6,54.8,30.14,SSE,159,3.0,9.0,97,0.00,,---,0.00,VWS V15.00,2014-09-19 10:48:00,
2014-09-19 05:49:00,55.7,54.9,30.14,South,180,6.0,9.0,97,0.00,,---,0.00,VWS V15.00,2014-09-19 10:49:00,
2014-09-19 05:54:00,55.8,55.2,30.14,South,182,8.0,9.0,98,0.00,,---,0.00,VWS V15.00,2014-09-19 10:54:00,
2014-09-19 05:59:00,55.9,55.3,30.14,South,173,5.0,9.0,98,0.00,,---,0.00,VWS V15.00,2014-09-19 10:59:00,
2014-09-19 06:04:00,55.9,55.3,30.14,South,184,2.0,9.0,98,0.00,,---,0.00,VWS V15.00,2014-09-19 11:04:00,
2014-09-19 06:09:00,55.9,55.1,30.14,South,174,5.0,7.0,97,0.00,,---,0.00,VWS V15.00,2014-09-19 11:09:00,
2014-09-19 06:14:00,55.8,55.0,30.14,South,170,4.0,7.0,97,0.00,,---,0.00,VWS V15.00,2014-09-19 11:14:00,
2014-09-19 06:19:00,55.8,55.0,30.15,SSE,163,6.0,6.0,97,0.00,,---,0.00,VWS V15.00,2014-09-19 11:19:00,
2014-09-19 06:24:00,55.7,54.9,30.15,SSE,161,4.0,5.0,97,0.00,,---,0.00,VWS V15.00,2014-09-19 11:24:00,
2014-09-19 06:29:00,55.7,54.9,30.15,SSE,161,4.0,9.0,97,0.00,,---,0.00,VWS V15.00,2014-09-19 11:29:00,
2014-09-19 06:34:00,55.6,54.8,30.15,SSE,165,3.0,8.0,97,0.00,,---,0.00,VWS V15.00,2014-09-19 11:34:00,
2014-09-19 06:39:00,55.6,54.8,30.15,SSE,167,5.0,7.0,97,0.00,,---,0.00,VWS V15.00,2014-09-19 11:39:00,
2014-09-19 06:44:00,55.5,54.7,30.14,SSE,156,4.0,7.0,97,0.00,,---,0.00,VWS V15.00,2014-09-19 11:44:00,
2014-09-19 06:49:00,55.5,54.7,30.14,South,173,5.0,8.0,97,0.00,,---,0.00,VWS V15.00,2014-09-19 11:49:00,
2014-09-19 06:54:00,55.5,54.7,30.14,SSE,157,5.0,8.0,97,0.00,,---,0.00,VWS V15.00,2014-09-19 11:54:00,
2014-09-19 06:59:00,55.5,54.7,30.14,SSE,163,4.0,8.0,97,0.00,,---,0.00,VWS V15.00,2014-09-19 11:59:00,
2014-09-19 07:04:00,55.5,54.7,30.14,South,171,7.0,8.0,97,0.00,,---,0.00,VWS V15.00,2014-09-19 12:04:00,
2014-09-19 07:09:00,55.5,54.7,30.14,SSE,157,1.0,7.0,97,0.00,,---,0.00,VWS V15.00,2014-09-19 12:09:00,
2014-09-19 07:14:00,55.5,54.7,30.14,SSE,162,4.0,7.0,97,0.00,,---,0.00,VWS V15.00,2014-09-19 12:14:00,
2014-09-19 07:19:00,55.5,54.7,30.14,SSE,165,5.0,9.0,97,0.00,,---,0.00,VWS V15.00,2014-09-19 12:19:00,
2014-09-19 07:24:00,55.5,54.7,30.14,SSE,153,9.0,9.0,97,0.00,,---,0.00,VWS V15.00,2014-09-19 12:24:00,
2014-09-19 07:29:00,55.5,54.7,30.15,South,180,5.0,7.0,97,0.00,,---,0.00,VWS V15.00,2014-09-19 12:29:00,
2014-09-19 07:34:00,55.5,54.7,30.15,South,181,4.0,7.0,97,0.00,,---,0.00,VWS V15.00,2014-09-19 12:34:00,
2014-09-19 07:39:00,55.6,54.8,30.15,South,175,6.0,7.0,97,0.00,,---,0.00,VWS V15.00,2014-09-19 12:39:00,
2014-09-19 07:44:00,55.6,54.8,30.15,South,174,4.0,9.0,97,0.00,,---,0.00,VWS V15.00,2014-09-19 12:44:00,
2014-09-19 07:49:00,55.6,54.8,30.15,SSE,165,7.0,9.0,97,0.00,,---,0.00,VWS V15.00,2014-09-19 12:49:00,
2014-09-19 07:54:00,55.7,54.9,30.15,SSE,159,3.0,8.0,97,0.00,,---,0.00,VWS V15.00,2014-09-19 12:54:00,
2014-09-19 07:59:00,55.8,55.2,30.15,SSE,166,3.0,9.0,98,0.00,,---,0.00,VWS V15.00,2014-09-19 12:59:00,
2014-09-19 08:04:00,56.0,55.5,30.15,SSE,166,4.0,7.0,98,0.00,,---,0.00,VWS V15.00,2014-09-19 13:04:00,
2014-09-19 08:09:00,56.1,55.5,30.15,SSE,168,6.0,8.0,98,0.00,,---,0.00,VWS V15.00,2014-09-19 13:09:00,
2014-09-19 08:14:00,56.1,55.3,30.15,SSE,166,3.0,7.0,97,0.00,,---,0.00,VWS V15.00,2014-09-19 13:14:00,
2014-09-19 08:19:00,56.1,55.5,30.15,SSE,165,4.0,6.0,98,0.00,,---,0.00,VWS V15.00,2014-09-19 13:19:00,
2014-09-19 08:24:00,56.2,55.4,30.14,SSE,166,3.0,7.0,97,0.00,,---,0.00,VWS V15.00,2014-09-19 13:24:00,
2014-09-19 08:29:00,56.4,55.6,30.14,SSE,156,6.0,9.0,97,0.00,,---,0.00,VWS V15.00,2014-09-19 13:29:00,
2014-09-19 08:34:00,56.6,56.0,30.15,South,175,2.0,9.0,98,0.01,,---,0.01,VWS V15.00,2014-09-19 13:34:00,
2014-09-19 08:39:00,56.9,56.1,30.14,South,178,10.0,10.0,97,0.01,,---,0.01,VWS V15.00,2014-09-19 13:39:00,
2014-09-19 08:44:00,57.0,56.4,30.14,South,185,5.0,12.0,98,0.01,,---,0.01,VWS V15.00,2014-09-19 13:44:00,
2014-09-19 08:49:00,57.1,56.3,30.14,South,185,3.0,8.0,97,0.01,,---,0.01,VWS V15.00,2014-09-19 13:49:00,
2014-09-19 08:54:00,57.3,56.5,30.14,SSE,167,4.0,8.0,97,0.01,,---,0.01,VWS V15.00,2014-09-19 13:54:00,
2014-09-19 08:59:00,57.6,56.8,30.14,South,174,7.0,7.0,97,0.01,,---,0.01,VWS V15.00,2014-09-19 13:59:00,
2014-09-19 09:04:00,57.9,57.1,30.14,SSE,164,7.0,7.0,97,0.01,,---,0.01,VWS V15.00,2014-09-19 14:04:00,
2014-09-19 09:09:00,58.0,56.9,30.13,South,180,5.0,10.0,96,0.01,,---,0.01,VWS V15.00,2014-09-19 14:09:00,
2014-09-19 09:14:00,58.5,57.4,30.13,South,177,9.0,9.0,96,0.01,,---,0.01,VWS V15.00,2014-09-19 14:14:00,
2014-09-19 09:19:00,58.8,57.4,30.13,SSE,157,6.0,10.0,95,0.01,,---,0.01,VWS V15.00,2014-09-19 14:19:00,
2014-09-19 09:24:00,59.3,57.3,30.12,South,178,4.0,9.0,93,0.01,,---,0.01,VWS V15.00,2014-09-19 14:24:00,
2014-09-19 09:29:00,60.0,57.7,30.12,South,181,4.0,7.0,92,0.01,,---,0.01,VWS V15.00,2014-09-19 14:29:00,
2014-09-19 09:34:00,60.6,57.7,30.12,South,181,10.0,10.0,90,0.01,,---,0.01,VWS V15.00,2014-09-19 14:34:00,
2014-09-19 09:39:00,61.2,57.3,30.12,South,189,5.0,10.0,87,0.00,,---,0.01,VWS V15.00,2014-09-19 14:39:00,
2014-09-19 09:44:00,61.8,56.9,30.13,SSW,202,7.0,13.0,84,0.00,,---,0.01,VWS V15.00,2014-09-19 14:44:00,
2014-09-19 09:49:00,62.5,56.9,30.13,SSW,210,7.0,10.0,82,0.00,,---,0.01,VWS V15.00,2014-09-19 14:49:00,
2014-09-19 09:54:00,63.0,56.7,30.12,SSE,158,6.0,15.0,80,0.00,,---,0.01,VWS V15.00,2014-09-19 14:54:00,
2014-09-19 09:59:00,63.3,56.3,30.11,South,182,11.0,12.0,78,0.00,,---,0.01,VWS V15.00,2014-09-19 14:59:00,
2014-09-19 10:04:00,63.5,55.4,30.10,South,186,14.0,16.0,75,0.00,,---,0.01,VWS V15.00,2014-09-19 15:04:00,
2014-09-19 10:09:00,63.5,55.4,30.10,South,170,13.0,18.0,75,0.00,,---,0.01,VWS V15.00,2014-09-19 15:09:00,
2014-09-19 10:14:00,64.0,56.3,30.09,SSW,195,5.0,11.0,76,0.00,,---,0.01,VWS V15.00,2014-09-19 15:14:00,
2014-09-19 10:19:00,64.4,55.9,30.09,South,175,9.0,14.0,74,0.00,,---,0.01,VWS V15.00,2014-09-19 15:19:00,
2014-09-19 10:24:00,64.8,56.3,30.09,SSW,198,6.0,14.0,74,0.00,,---,0.01,VWS V15.00,2014-09-19 15:24:00,
2014-09-19 10:29:00,64.9,55.3,30.09,SSW,197,12.0,17.0,71,0.00,,---,0.01,VWS V15.00,2014-09-19 15:29:00,
2014-09-19 10:34:00,65.1,55.1,30.09,South,190,8.0,18.0,70,0.00,,---,0.01,VWS V15.00,2014-09-19 15:34:00,
2014-09-19 10:39:00,65.4,55.4,30.09,SSW,211,7.0,17.0,70,0.00,,---,0.01,VWS V15.00,2014-09-19 15:39:00,
2014-09-19 10:44:00,65.8,55.4,30.09,SSW,193,8.0,17.0,69,0.00,,---,0.01,VWS V15.00,2014-09-19 15:44:00,
2014-09-19 10:49:00,65.9,55.5,30.09,SW,224,9.0,13.0,69,0.00,,---,0.01,VWS V15.00,2014-09-19 15:49:00,
2014-09-19 10:54:00,66.5,54.8,30.09,SSW,206,14.0,19.0,66,0.00,,---,0.01,VWS V15.00,2014-09-19 15:54:00,
2014-09-19 10:59:00,66.7,54.6,30.09,SW,215,9.0,21.0,65,0.00,,---,0.01,VWS V15.00,2014-09-19 15:59:00,
2014-09-19 11:04:00,66.9,54.8,30.09,SSW,213,18.0,18.0,65,0.00,,---,0.01,VWS V15.00,2014-09-19 16:04:00,
2014-09-19 11:09:00,67.2,55.0,30.09,SW,230,14.0,14.0,65,0.00,,---,0.01,VWS V15.00,2014-09-19 16:09:00,
2014-09-19 11:14:00,67.6,54.6,30.08,SW,214,15.0,21.0,63,0.00,,---,0.01,VWS V15.00,2014-09-19 16:14:00,
2014-09-19 11:19:00,67.7,54.7,30.08,SSW,207,9.0,16.0,63,0.00,,---,0.01,VWS V15.00,2014-09-19 16:19:00,
2014-09-19 11:24:00,68.0,54.5,30.08,WSW,240,9.0,13.0,62,0.00,,---,0.01,VWS V15.00,2014-09-19 16:24:00,
2014-09-19 11:29:00,68.3,54.8,30.08,SW,219,12.0,17.0,62,0.00,,---,0.01,VWS V15.00,2014-09-19 16:29:00,
2014-09-19 11:34:00,68.6,55.1,30.08,South,173,12.0,16.0,62,0.00,,---,0.01,VWS V15.00,2014-09-19 16:34:00,
2014-09-19 11:39:00,68.7,54.3,30.08,SW,220,12.0,17.0,60,0.00,,---,0.01,VWS V15.00,2014-09-19 16:39:00,
2014-09-19 11:44:00,68.8,53.9,30.08,West,263,11.0,25.0,59,0.00,,---,0.01,VWS V15.00,2014-09-19 16:44:00,
2014-09-19 11:49:00,69.0,54.5,30.08,SW,229,12.0,20.0,60,0.00,,---,0.01,VWS V15.00,2014-09-19 16:49:00,
2014-09-19 11:54:00,69.4,54.9,30.07,SSW,202,7.0,16.0,60,0.00,,---,0.01,VWS V15.00,2014-09-19 16:54:00,
2014-09-19 11:59:00,69.7,54.3,30.07,SSW,203,15.0,16.0,58,0.00,,---,0.01,VWS V15.00,2014-09-19 16:59:00,
2014-09-19 12:04:00,69.4,54.0,30.07,SW,223,8.0,18.0,58,0.00,,---,0.01,VWS V15.00,2014-09-19 17:04:00,
2014-09-19 12:09:00,69.5,53.6,30.06,SSW,194,6.0,20.0,57,0.00,,---,0.01,VWS V15.00,2014-09-19 17:09:00,
2014-09-19 12:14:00,69.5,53.6,30.06,SW,230,11.0,18.0,57,0.00,,---,0.01,VWS V15.00,2014-09-19 17:14:00,
2014-09-19 12:19:00,69.4,54.0,30.06,SW,216,13.0,22.0,58,0.00,,---,0.01,VWS V15.00,2014-09-19 17:19:00,
2014-09-19 12:24:00,69.5,53.6,30.06,WSW,252,10.0,22.0,57,0.00,,---,0.01,VWS V15.00,2014-09-19 17:24:00,
2014-09-19 12:29:00,69.7,54.3,30.05,SSW,203,17.0,20.0,58,0.00,,---,0.01,VWS V15.00,2014-09-19 17:29:00,
2014-09-19 12:34:00,69.4,54.0,30.05,SW,215,15.0,18.0,58,0.00,,---,0.01,VWS V15.00,2014-09-19 17:34:00,
2014-09-19 12:39:00,69.3,53.4,30.05,SSW,196,21.0,21.0,57,0.00,,---,0.01,VWS V15.00,2014-09-19 17:39:00,
2014-09-19 12:44:00,69.6,53.2,30.04,WSW,238,14.0,22.0,56,0.00,,---,0.01,VWS V15.00,2014-09-19 17:44:00,
2014-09-19 12:49:00,70.1,54.7,30.05,SSW,200,11.0,15.0,58,0.00,,---,0.01,VWS V15.00,2014-09-19 17:49:00,
2014-09-19 12:54:00,70.8,54.3,30.05,SSW,199,10.0,16.0,56,0.00,,---,0.01,VWS V15.00,2014-09-19 17:54:00,
2014-09-19 12:59:00,70.8,53.3,30.04,SSW,207,9.0,21.0,54,0.00,,---,0.01,VWS V15.00,2014-09-19 17:59:00,
2014-09-19 13:04:00,70.4,53.0,30.04,SW,221,24.0,24.0,54,0.00,,---,0.01,VWS V15.00,2014-09-19 18:04:00,
2014-09-19 13:09:00,70.5,52.6,30.03,SSW,209,19.0,25.0,53,0.00,,---,0.01,VWS V15.00,2014-09-19 18:09:00,
2014-09-19 13:14:00,70.5,53.1,30.03,SSW,196,14.0,19.0,54,0.00,,---,0.01,VWS V15.00,2014-09-19 18:14:00,
2014-09-19 13:19:00,70.7,52.8,30.02,SW,217,28.0,28.0,53,0.00,,---,0.01,VWS V15.00,2014-09-19 18:19:00,
2014-09-19 13:24:00,70.7,53.3,30.02,SSW,207,8.0,24.0,54,0.00,,---,0.01,VWS V15.00,2014-09-19 18:24:00,
2014-09-19 13:29:00,70.6,53.2,30.01,South,175,17.0,19.0,54,0.00,,---,0.01,VWS V15.00,2014-09-19 18:29:00,
2014-09-19 13:34:00,70.5,52.6,30.01,South,188,16.0,25.0,53,0.00,,---,0.01,VWS V15.00,2014-09-19 18:34:00,
2014-09-19 13:39:00,70.7,52.8,30.01,SW,217,12.0,22.0,53,0.00,,---,0.01,VWS V15.00,2014-09-19 18:39:00,
2014-09-19 13:44:00,70.7,52.8,30.00,SSW,206,17.0,24.0,53,0.00,,---,0.01,VWS V15.00,2014-09-19 18:44:00,
2014-09-19 13:49:00,70.6,53.2,30.00,SSW,203,14.0,20.0,54,0.00,,---,0.01,VWS V15.00,2014-09-19 18:49:00,
2014-09-19 13:54:00,70.4,52.5,30.00,SSW,198,17.0,20.0,53,0.00,,---,0.01,VWS V15.00,2014-09-19 18:54:00,
2014-09-19 13:59:00,70.5,53.6,29.99,SSW,209,16.0,19.0,55,0.00,,---,0.01,VWS V15.00,2014-09-19 18:59:00,
2014-09-19 14:04:00,70.8,52.3,29.99,SSW,207,22.0,23.0,52,0.00,,---,0.01,VWS V15.00,2014-09-19 19:04:00,
2014-09-19 14:09:00,70.7,52.2,29.98,South,185,19.0,23.0,52,0.00,,---,0.01,VWS V15.00,2014-09-19 19:09:00,
2014-09-19 14:12:00,70.9,54.0,29.99,SSW,203,8.0,10.0,55,0.00,,---,0.01,VWS V15.00,2014-09-19 19:12:00,
2014-09-19 14:17:00,71.2,53.2,29.98,SW,215,12.0,21.0,53,0.00,,---,0.01,VWS V15.00,2014-09-19 19:17:00,
2014-09-19 14:22:00,71.3,52.8,29.98,SW,236,12.0,15.0,52,0.00,,---,0.01,VWS V15.00,2014-09-19 19:22:00,
2014-09-19 14:27:00,71.6,53.1,29.98,South,181,11.0,16.0,52,0.00,,---,0.01,VWS V15.00,2014-09-19 19:27:00,
2014-09-19 14:32:00,71.7,54.2,29.98,SSW,198,17.0,18.0,54,0.00,,---,0.01,VWS V15.00,2014-09-19 19:32:00,
2014-09-19 14:37:00,71.8,53.8,29.98,WSW,247,19.0,19.0,53,0.00,,---,0.01,VWS V15.00,2014-09-19 19:37:00,
2014-09-19 14:42:00,71.8,52.7,29.97,South,182,13.0,26.0,51,0.00,,---,0.01,VWS V15.00,2014-09-19 19:42:00,
2014-09-19 14:47:00,71.4,52.3,29.97,SSW,207,11.0,22.0,51,0.00,,---,0.01,VWS V15.00,2014-09-19 19:47:00,
2014-09-19 14:51:00,71.3,52.8,29.97,SSW,192,12.0,16.0,52,0.00,,---,0.01,VWS V15.00,2014-09-19 19:51:00,
2014-09-19 14:56:00,71.3,52.8,29.96,SSW,197,12.0,15.0,52,0.00,,---,0.01,VWS V15.00,2014-09-19 19:56:00,
2014-09-19 15:01:00,71.4,52.9,29.96,South,177,14.0,26.0,52,0.00,,---,0.01,VWS V15.00,2014-09-19 20:01:00,
2014-09-19 15:06:00,71.2,52.2,29.96,South,181,15.0,19.0,51,0.00,,---,0.01,VWS V15.00,2014-09-19 20:06:00,
2014-09-19 15:11:00,71.3,53.3,29.95,SSE,152,9.0,17.0,53,0.00,,---,0.01,VWS V15.00,2014-09-19 20:11:00,
2014-09-19 15:16:00,71.4,52.3,29.95,SW,216,14.0,17.0,51,0.00,,---,0.01,VWS V15.00,2014-09-19 20:16:00,
2014-09-19 15:21:00,71.3,52.3,29.95,SW,214,17.0,17.0,51,0.00,,---,0.01,VWS V15.00,2014-09-19 20:21:00,
2014-09-19 15:26:00,71.2,52.2,29.95,South,183,14.0,21.0,51,0.00,,---,0.01,VWS V15.00,2014-09-19 20:26:00,
2014-09-19 15:31:00,71.0,51.5,29.95,SSW,193,17.0,17.0,50,0.00,,---,0.01,VWS V15.00,2014-09-19 20:31:00,
2014-09-19 15:36:00,70.8,51.8,29.95,SSW,198,11.0,11.0,51,0.00,,---,0.01,VWS V15.00,2014-09-19 20:36:00,
2014-09-19 15:41:00,71.0,52.0,29.94,SW,219,8.0,11.0,51,0.00,,---,0.01,VWS V15.00,2014-09-19 20:41:00,
2014-09-19 15:46:00,71.0,52.5,29.94,SSW,194,16.0,19.0,52,0.00,,---,0.01,VWS V15.00,2014-09-19 20:46:00,
2014-09-19 15:51:00,71.0,52.5,29.94,SSW,211,13.0,13.0,52,0.00,,---,0.01,VWS V15.00,2014-09-19 20:51:00,
2014-09-19 15:56:00,71.2,52.7,29.93,South,186,15.0,21.0,52,0.00,,---,0.01,VWS V15.00,2014-09-19 20:56:00,
2014-09-19 16:00:00,71.3,52.8,29.93,SW,227,14.0,23.0,52,0.00,,---,0.01,VWS V15.00,2014-09-19 21:00:00,
2014-09-19 16:05:00,71.5,53.0,29.94,South,191,10.0,17.0,52,0.00,,---,0.01,VWS V15.00,2014-09-19 21:05:00,
2014-09-19 16:10:00,71.5,53.0,29.94,SSW,209,10.0,16.0,52,0.00,,---,0.01,VWS V15.00,2014-09-19 21:10:00,
2014-09-19 16:15:00,71.2,52.7,29.93,South,185,20.0,21.0,52,0.00,,---,0.01,VWS V15.00,2014-09-19 21:15:00,
2014-09-19 16:20:00,71.4,52.3,29.93,SSW,201,17.0,19.0,51,0.00,,---,0.01,VWS V15.00,2014-09-19 21:20:00,
2014-09-19 16:25:00,71.4,52.3,29.93,South,178,9.0,19.0,51,0.00,,---,0.01,VWS V15.00,2014-09-19 21:25:00,
2014-09-19 16:30:00,71.3,53.3,29.93,South,188,11.0,13.0,53,0.00,,---,0.01,VWS V15.00,2014-09-19 21:30:00,
2014-09-19 16:35:00,71.2,52.7,29.93,SSW,207,17.0,25.0,52,0.00,,---,0.01,VWS V15.00,2014-09-19 21:35:00,
2014-09-19 16:40:00,71.0,53.0,29.92,SW,226,11.0,23.0,53,0.00,,---,0.01,VWS V15.00,2014-09-19 21:40:00,
2014-09-19 16:45:00,71.1,53.6,29.92,SSW,204,8.0,17.0,54,0.00,,---,0.01,VWS V15.00,2014-09-19 21:45:00,
2014-09-19 16:50:00,71.0,53.0,29.92,South,191,16.0,26.0,53,0.00,,---,0.01,VWS V15.00,2014-09-19 21:50:00,
2014-09-19 16:55:00,70.9,52.4,29.92,SSW,203,17.0,21.0,52,0.00,,---,0.01,VWS V15.00,2014-09-19 21:55:00,
2014-09-19 17:00:00,70.8,53.3,29.92,SSW,202,10.0,18.0,54,0.00,,---,0.01,VWS V15.00,2014-09-19 22:00:00,
2014-09-19 17:05:00,70.7,52.8,29.92,SW,217,16.0,22.0,53,0.00,,---,0.01,VWS V15.00,2014-09-19 22:05:00,
2014-09-19 17:10:00,70.7,52.8,29.92,SSW,210,12.0,21.0,53,0.00,,---,0.01,VWS V15.00,2014-09-19 22:10:00,
2014-09-19 17:15:00,70.6,52.7,29.92,SSW,196,15.0,22.0,53,0.00,,---,0.01,VWS V15.00,2014-09-19 22:15:00,
2014-09-19 17:20:00,70.5,52.6,29.92,SSW,213,14.0,25.0,53,0.00,,---,0.01,VWS V15.00,2014-09-19 22:20:00,
2014-09-19 17:25:00,70.4,52.5,29.91,South,187,17.0,22.0,53,0.00,,---,0.01,VWS V15.00,2014-09-19 22:25:00,
2014-09-19 17:30:00,70.4,52.5,29.91,SSW,209,9.0,25.0,53,0.00,,---,0.01,VWS V15.00,2014-09-19 22:30:00,
2014-09-19 17:35:00,70.3,52.4,29.91,SW,224,12.0,22.0,53,0.00,,---,0.01,VWS V15.00,2014-09-19 22:35:00,
2014-09-19 17:40:00,70.1,52.7,29.91,South,190,13.0,17.0,54,0.00,,---,0.01,VWS V15.00,2014-09-19 22:40:00,
2014-09-19 17:45:00,69.9,53.0,29.91,SSW,207,11.0,20.0,55,0.00,,---,0.01,VWS V15.00,2014-09-19 22:45:00,
2014-09-19 17:50:00,69.7,53.3,29.91,SSW,211,6.0,16.0,56,0.00,,---,0.01,VWS V15.00,2014-09-19 22:50:00,
2014-09-19 17:55:00,69.6,52.7,29.91,SW,223,9.0,17.0,55,0.00,,---,0.01,VWS V15.00,2014-09-19 22:55:00,
2014-09-19 18:00:00,69.5,52.6,29.90,South,182,16.0,18.0,55,0.00,,---,0.01,VWS V15.00,2014-09-19 23:00:00,
2014-09-19 18:05:00,69.5,52.6,29.90,South,178,11.0,19.0,55,0.00,,---,0.01,VWS V15.00,2014-09-19 23:05:00,
2014-09-19 18:10:00,69.4,52.5,29.90,South,184,12.0,15.0,55,0.00,,---,0.01,VWS V15.00,2014-09-19 23:10:00,
2014-09-19 18:15:00,69.3,52.5,29.90,SW,219,10.0,21.0,55,0.00,,---,0.01,VWS V15.00,2014-09-19 23:15:00,
2014-09-19 18:20:00,69.2,52.8,29.89,SSW,193,15.0,18.0,56,0.00,,---,0.01,VWS V15.00,2014-09-19 23:20:00,
2014-09-19 18:25:00,69.1,52.8,29.89,SSW,205,12.0,17.0,56,0.00,,---,0.01,VWS V15.00,2014-09-19 23:25:00,
2014-09-19 18:30:00,69.0,52.7,29.89,SSW,209,11.0,20.0,56,0.00,,---,0.01,VWS V15.00,2014-09-19 23:30:00,
2014-09-19 18:35:00,68.8,53.0,29.89,SSW,199,7.0,15.0,57,0.00,,---,0.01,VWS V15.00,2014-09-19 23:35:00,
2014-09-19 18:40:00,68.6,52.8,29.89,SSW,208,7.0,19.0,57,0.00,,---,0.01,VWS V15.00,2014-09-19 23:40:00,
2014-09-19 18:45:00,68.5,52.7,29.88,SW,227,7.0,18.0,57,0.00,,---,0.01,VWS V15.00,2014-09-19 23:45:00,
2014-09-19 18:50:00,68.3,52.5,29.88,SW,217,9.0,18.0,57,0.00,,---,0.01,VWS V15.00,2014-09-19 23:50:00,
2014-09-19 18:55:00,68.1,52.8,29.88,SSW,205,10.0,18.0,58,0.00,,---,0.01,VWS V15.00,2014-09-19 23:55:00,
2014-09-19 19:00:00,68.0,52.7,29.87,South,188,10.0,19.0,58,0.00,,---,0.01,VWS V15.00,2014-09-20 00:00:00,
2014-09-19 19:05:00,67.9,52.6,29.87,SSW,207,10.0,21.0,58,0.00,,---,0.01,VWS V15.00,2014-09-20 00:05:00,
2014-09-19 19:10:00,67.9,52.6,29.87,SSW,211,8.0,17.0,58,0.00,,---,0.01,VWS V15.00,2014-09-20 00:10:00,
2014-09-19 19:15:00,67.7,52.4,29.87,SW,215,12.0,18.0,58,0.00,,---,0.01,VWS V15.00,2014-09-20 00:15:00,
2014-09-19 19:20:00,67.6,52.3,29.87,SSW,194,7.0,17.0,58,0.00,,---,0.01,VWS V15.00,2014-09-20 00:20:00,
2014-09-19 19:25:00,67.5,52.2,29.87,SSW,202,7.0,22.0,58,0.00,,---,0.01,VWS V15.00,2014-09-20 00:25:00,
2014-09-19 19:30:00,67.4,52.6,29.87,SSW,211,7.0,15.0,59,0.00,,---,0.01,VWS V15.00,2014-09-20 00:30:00,
2014-09-19 19:35:00,67.3,52.5,29.87,SSW,207,8.0,17.0,59,0.00,,---,0.01,VWS V15.00,2014-09-20 00:35:00,
2014-09-19 19:40:00,67.2,52.4,29.86,SW,215,13.0,18.0,59,0.00,,---,0.01,VWS V15.00,2014-09-20 00:40:00,
2014-09-19 19:45:00,67.0,52.2,29.86,South,186,9.0,17.0,59,0.00,,---,0.01,VWS V15.00,2014-09-20 00:45:00,
2014-09-19 19:48:00,67.0,52.7,29.87,South,184,9.0,15.0,60,0.00,,---,0.01,VWS V15.00,2014-09-20 00:48:00,
2014-09-19 19:53:00,66.9,52.6,29.86,SW,216,10.0,18.0,60,0.00,,---,0.01,VWS V15.00,2014-09-20 00:53:00,
2014-09-19 19:58:00,66.8,52.5,29.86,SW,220,8.0,16.0,60,0.00,,---,0.01,VWS V15.00,2014-09-20 00:58:00,
2014-09-19 20:03:00,66.8,52.5,29.86,West,261,11.0,18.0,60,0.00,,---,0.01,VWS V15.00,2014-09-20 01:03:00,
2014-09-19 20:08:00,66.7,52.4,29.87,South,182,7.0,15.0,60,0.00,,---,0.01,VWS V15.00,2014-09-20 01:08:00,
2014-09-19 20:13:00,66.6,52.3,29.87,South,175,14.0,14.0,60,0.00,,---,0.01,VWS V15.00,2014-09-20 01:13:00,
2014-09-19 20:18:00,66.5,52.7,29.87,SW,215,6.0,14.0,61,0.00,,---,0.01,VWS V15.00,2014-09-20 01:18:00,
2014-09-19 20:23:00,66.4,52.6,29.87,South,188,12.0,14.0,61,0.00,,---,0.01,VWS V15.00,2014-09-20 01:23:00,
2014-09-19 20:28:00,66.3,52.5,29.87,South,190,7.0,12.0,61,0.00,,---,0.01,VWS V15.00,2014-09-20 01:28:00,
2014-09-19 20:33:00,66.2,52.4,29.87,SSW,213,8.0,13.0,61,0.00,,---,0.01,VWS V15.00,2014-09-20 01:33:00,
2014-09-19 20:38:00,66.2,52.4,29.87,SSW,210,11.0,15.0,61,0.00,,---,0.01,VWS V15.00,2014-09-20 01:38:00,
2014-09-19 20:43:00,66.0,52.6,29.87,SSW,209,9.0,13.0,62,0.00,,---,0.01,VWS V15.00,2014-09-20 01:43:00,
2014-09-19 20:48:00,65.9,52.5,29.86,SSW,200,8.0,13.0,62,0.00,,---,0.01,VWS V15.00,2014-09-20 01:48:00,
2014-09-19 20:53:00,65.9,52.5,29.86,South,177,8.0,16.0,62,0.00,,---,0.01,VWS V15.00,2014-09-20 01:53:00,
2014-09-19 20:58:00,65.9,52.5,29.86,SSW,204,7.0,15.0,62,0.00,,---,0.01,VWS V15.00,2014-09-20 01:58:00,
2014-09-19 21:03:00,65.9,52.5,29.86,South,191,7.0,15.0,62,0.00,,---,0.01,VWS V15.00,2014-09-20 02:03:00,
2014-09-19 21:08:00,65.8,52.4,29.86,SSW,201,8.0,15.0,62,0.00,,---,0.01,VWS V15.00,2014-09-20 02:08:00,
2014-09-19 21:13:00,65.8,52.4,29.86,SSW,209,13.0,13.0,62,0.00,,---,0.01,VWS V15.00,2014-09-20 02:13:00,
2014-09-19 21:18:00,65.7,52.3,29.85,South,184,7.0,13.0,62,0.00,,---,0.01,VWS V15.00,2014-09-20 02:18:00,
2014-09-19 21:23:00,65.7,52.3,29.85,SSW,206,11.0,16.0,62,0.00,,---,0.01,VWS V15.00,2014-09-20 02:23:00,
2014-09-19 21:28:00,65.8,52.4,29.85,SSW,208,10.0,17.0,62,0.00,,---,0.01,VWS V15.00,2014-09-20 02:28:00,
2014-09-19 21:33:00,65.8,52.4,29.85,SSW,197,13.0,16.0,62,0.00,,---,0.01,VWS V15.00,2014-09-20 02:33:00,
2014-09-19 21:38:00,65.8,52.4,29.85,South,191,13.0,14.0,62,0.00,,---,0.01,VWS V15.00,2014-09-20 02:38:00,
2014-09-19 21:43:00,65.8,52.4,29.85,South,171,10.0,14.0,62,0.00,,---,0.01,VWS V15.00,2014-09-20 02:43:00,
2014-09-19 21:48:00,65.8,52.4,29.85,SSW,213,7.0,17.0,62,0.00,,---,0.01,VWS V15.00,2014-09-20 02:48:00,
2014-09-19 21:53:00,65.8,52.0,29.84,SSW,200,22.0,25.0,61,0.00,,---,0.01,VWS V15.00,2014-09-20 02:53:00,
2014-09-19 21:58:00,65.9,52.1,29.84,SW,216,12.0,18.0,61,0.00,,---,0.01,VWS V15.00,2014-09-20 02:58:00,
2014-09-19 22:03:00,66.0,52.2,29.84,SSW,194,11.0,24.0,61,0.00,,---,0.01,VWS V15.00,2014-09-20 03:03:00,
2014-09-19 22:08:00,65.8,52.4,29.84,SSW,212,12.0,13.0,62,0.00,,---,0.01,VWS V15.00,2014-09-20 03:08:00,
2014-09-19 22:13:00,65.8,52.4,29.84,SW,215,18.0,20.0,62,0.00,,---,0.01,VWS V15.00,2014-09-20 03:13:00,
2014-09-19 22:18:00,65.7,52.3,29.84,SSW,213,7.0,14.0,62,0.00,,---,0.01,VWS V15.00,2014-09-20 03:18:00,
2014-09-19 22:23:00,65.5,52.2,29.84,SW,215,10.0,15.0,62,0.00,,---,0.01,VWS V15.00,2014-09-20 03:23:00,
2014-09-19 22:28:00,65.4,52.1,29.84,SSW,196,15.0,15.0,62,0.00,,---,0.01,VWS V15.00,2014-09-20 03:28:00,
2014-09-19 22:33:00,65.4,52.5,29.84,SSW,196,13.0,18.0,63,0.00,,---,0.01,VWS V15.00,2014-09-20 03:33:00,
2014-09-19 22:38:00,65.4,52.5,29.84,SSW,193,11.0,17.0,63,0.00,,---,0.01,VWS V15.00,2014-09-20 03:38:00,
2014-09-19 22:43:00,65.5,52.2,29.83,SSW,205,16.0,19.0,62,0.00,,---,0.01,VWS V15.00,2014-09-20 03:43:00,
2014-09-19 22:48:00,65.6,52.7,29.84,SSW,209,8.0,18.0,63,0.00,,---,0.01,VWS V15.00,2014-09-20 03:48:00,
2014-09-19 22:53:00,65.5,52.6,29.84,SSW,213,8.0,20.0,63,0.00,,---,0.01,VWS V15.00,2014-09-20 03:53:00,
2014-09-19 22:58:00,65.4,52.5,29.83,SSW,204,7.0,17.0,63,0.00,,---,0.01,VWS V15.00,2014-09-20 03:58:00,
2014-09-19 23:03:00,65.3,52.8,29.83,SW,231,11.0,13.0,64,0.00,,---,0.01,VWS V15.00,2014-09-20 04:03:00,
2014-09-19 23:08:00,65.2,52.7,29.84,West,281,5.0,17.0,64,0.00,,---,0.01,VWS V15.00,2014-09-20 04:08:00,